Cloud_Cover
0 0 5 16 4 3 1 88 38 50 69 47 5 31 92 100 100 25 5 49 59 48 30 14 5 5 5 5 84 100 62 8 35 5 1 3 0 0 0 0 0 0 0 0 0 0 0 0 0
5 0 3 2 4 4 4 84 50 50 95 13 72 10 92 31 79 100 60 43 57 100 100 60 5 55 7 64 5 7 9 5 5 3 2 1 0 0 0 0 0 0 0 0 0 0 0 0 0
5 5 0 2 0 34 5 83 5 5 79 45 38 38 96 97 30 31 98 64 53 22 32 23 5 2 1 2 5 5 21 5 8 21 4 4 4 0 1 0 0 0 0 0 0 0 0 0 0
5 0 0 0 4 100 40 14 9 5 11 73 95 40 50 98 100 91 72 100 36 35 3 6 5 5 4 5 5 5 5 49 100 100 82 94 5 5 3 3 5 1 0 2 1 0 0 0 0
2 0 0 0 5 6 74 0 0 5 5 23 100 5 92 58 100 100 100 75 93 94 100 100 55 12 33 99 5 86 5 14 94 100 83 5 8 100 91 94 32 5 5 5 5 5 0 0 0
52 0 0 0 14 5 3 4 0 2 4 7 95 35 30 100 91 100 87 44 100 100 100 98 15 10 10 100 45 36 5 86 17 17 6 25 100 99 100 100 71 6 0 0 5 5 5 5 5
66 5 3 5 77 97 4 0 0 0 5 4 18 96 17 100 77 94 99 100 100 96 49 19 22 5 9 23 6 23 100 97 24 5 3 12 28 100 100 16 16 83 100 55 98 86 21 5 1
5 29 0 4 99 100 93 3 0 0 0 5 5 81 100 100 91 100 100 100 100 65 88 82 76 34 30 10 51 84 40 17 12 5 71 7 90 26 9 100 100 100 100 100 100 100 99 96 3
0 34 5 10 98 100 100 57 0 0 0 0 1 11 7 97 100 100 100 100 100 100 86 57 99 100 53 30 18 59 98 66 5 5 82 60 99 92 100 100 100 100 100 100 100 100 52 40 5
0 0 99 100 100 100 100 100 24 0 0 0 0 10 34 92 78 100 100 100 100 100 100 33 87 96 58 100 89 83 16 16 15 7 63 39 100 100 100 100 100 100 100 100 100 100 5 0 0
0 0 100 100 100 100 100 100 97 30 0 0 0 0 2 13 5 44 100 100 100 100 100 100 89 94 100 100 92 100 100 98 98 89 82 100 100 100 100 100 100 100 100 100 100 100 5 4 0
0 0 59 100 100 100 100 100 100 69 18 0 0 4 0 5 14 27 9 5 56 100 100 92 19 100 100 100 98 40 86 100 100 100 100 100 100 100 100 100 100 100 100 100 100 100 76 87 12
0 0 1 100 100 100 100 100 71 6 29 10 0 2 4 5 23 13 5 5 23 80 99 90 100 100 100 27 8 26 100 100 100 100 100 100 100 100 100 100 100 100 100 100 99 93 100 90 70
0 0 0 53 100 100 100 100 100 27 4 17 5 5 0 3 5 15 1 2 5 22 98 100 97 99 97 100 100 100 100 100 100 100 100 100 100 100 100 68 100 100 100 100 100 100 78 94 77
0 0 0 0 69 100 100 67 99 7 5 2 0 5 5 5 0 1 5 2 1 5 25 84 74 100 100 100 100 100 100 100 100 100 100 100 100 100 100 64 100 44 99 100 100 89 100 92 100
0 0 0 0 0 68 53 100 32 5 5 5 0 0 5 5 5 0 0 2 1 5 6 43 100 100 100 100 100 100 100 95 100 100 100 100 100 100 100 100 97 46 99 100 100 97 100 100 20
0 0 0 0 0 0 91 100 100 40 5 5 5 0 0 5 5 5 5 0 0 3 16 47 100 100 100 100 100 100 100 100 100 100 100 100 100 100 100 100 98 100 96 99 100 100 100 100 100
0 0 0 0 0 0 8 100 100 100 42 5 13 22 0 1 44 58 12 15 5 4 1 37 100 100 100 100 100 100 100 100 100 100 100 100 100 100 100 100 100 100 84 81 100 100 100 100 100
1 0 0 0 0 0 0 23 100 100 100 9 5 96 68 0 0 5 5 52 5 4 1 100 100 100 100 100 100 99 100 100 100 100 100 100 100 100 100 100 100 100 100 100 100 100 100 100 100
5 4 0 1 0 0 0 0 77 100 100 99 5 5 31 7 1 0 5 17 94 43 1 100 100 100 100 100 100 100 100 100 100 100 100 100 100 100 100 100 100 100 100 100 100 100 100 100 100
5 5 3 12 5 0 0 0 0 70 93 100 83 5 1 3 5 4 1 5 31 85 6 26 100 100 100 100 98 100 100 100 100 100 100 100 100 94 99 100 93 100 100 100 100 100 100 100 100
80 15 100 6 5 1 0 0 0 0 4 46 100 100 15 0 1 0 0 0 2 14 9 5 12 100 100 100 100 100 100 100 100 100 100 100 100 93 74 95 59 29 94 100 100 100 100 100 100
100 100 100 100 0 5 0 0 0 0 0 1 13 5 5 5 0 0 0 0 0 0 5 77 34 17 100 100 100 100 96 53 100 100 100 100 99 100 100 100 100 100 100 100 100 100 100 100 100
100 100 100 100 13 4 2 0 1 1 0 0 0 0 5 0 0 0 0 0 0 0 0 3 54 100 41 100 100 100 100 100 98 100 100 100 100 100 100 100 100 100 100 100 100 100 100 100 100
100 100 71 32 6 0 5 0 0 4 0 0 0 0 0 0 0 0 0 0 0 0 0 0 85 60 88 62 100 100 100 100 85 100 100 100 100 100 100 100 100 100 100 100 100 100 100 100 100
100 100 58 4 4 1 18 15 10 3 2 0 0 0 0 0 0 0 0 0 0 0 0 0 3 58 63 43 54 28 100 100 100 99 100 100 100 98 56 100 100 100 100 100 100 100 100 100 100
100 100 30 5 5 20 5 5 0 0 1 0 0 0 0 0 0 1 29 55 25 24 31 36 56 48 34 84 40 2 5 21 99 100 100 100 94 21 58 90 75 99 98 100 100 100 100 100 100
100 100 47 31 85 36 5 4 4 1 5 5 2 1 4 34 40 46 59 83 71 38 26 6 5 45 79 86 100 21 35 18 5 46 97 99 89 90 83 96 93 83 90 99 89 100 100 100 100
97 35 10 41 57 53 5 5 2 0 0 0 2 9 94 61 29 46 78 76 52 23 6 49 92 100 69 71 24 100 100 99 26 92 54 99 28 8 77 82 100 97 91 85 98 100 100 100 100
100 100 100 100 99 50 69 4 0 0 5 0 26 66 75 38 37 3 5 24 100 25 49 13 7 92 97 100 100 100 85 41 37 5 100 100 100 100 100 100 81 5 18 33 67 69 6 5 18